Location: *
(55.5817°S, 142.4781°W)
Time: 06:27:27
(UTC+00:00)

Spot 4 Rocket - Pass Details

Date: 29 April 2025
Orbit: 769 x 774 km, 98.8° (Epoch: 23 May)

Event Time Altitude Azimuth Distance (km) Brightness Sun altitude
Rises 15:06:47 0° 16° (NNE) 3,249 7.5 -14.9°
Reaches altitude 10° 15:09:05 10° 15° (NNE) 2,329 6.7 -14.6°
Maximum altitude 15:14:14 82° 287° (WNW) 798 4.0 -13.9°
Drops below altitude 10° 15:19:27 10° 198° (SSW) 2,356 6.3 -13.2°
Sets 15:21:47 0° 197° (SSW) 3,290 7.0 -12.8°
